Location: Chevoux
(46.3801°N, 4.9476°E)
Time: 11:58:12
(UTC+00:00)

USA 234 - Pass Details

Date: 28 January 2021
Orbit: 1100 x 1107 km, 123.0° (Epoch: 01 March)

Event Time Altitude Azimuth Distance (km) Brightness Sun altitude
Exits shadow 19:53:12 43° 357° (N) 1,497 3.9 -33.5°
Drops below altitude 10° 19:58:27 10° 310° (NW) 2,967 6.1 -34.4°
Sets 20:01:02 0° 304° (NW) 3,927 7.0 -34.8°
